Norfork Lake Weather Center

Moon Phase Calendar



Norfork Lake Water Level
Online Cameras

 


      

Current Conditions in Baxter
3/5/2021 1:35:13 AM

51°F
Feels Like 45
Clear
Humidity
54%
Pressure
30.12"
Wind
5.8 mph (ESE)
Dew Point
35°F
UV Index
0/10 (Low)
Visibility
6 mi

Hourly Forecast

Date & Time Fri, Mar 5
1:00 AM
Fri, Mar 5
2:00 AM
Fri, Mar 5
3:00 AM
Fri, Mar 5
4:00 AM
Fri, Mar 5
5:00 AM
Fri, Mar 5
6:00 AM
Fri, Mar 5
7:00 AM
Fri, Mar 5
8:00 AM
Fri, Mar 5
9:00 AM
Fri, Mar 5
10:00 AM
Fri, Mar 5
11:00 AM
Fri, Mar 5
12:00 PM
Fri, Mar 5
1:00 PM
Fri, Mar 5
2:00 PM
Fri, Mar 5
3:00 PM
Fri, Mar 5
4:00 PM
Fri, Mar 5
5:00 PM
Fri, Mar 5
6:00 PM
Fri, Mar 5
7:00 PM
Fri, Mar 5
8:00 PM
Fri, Mar 5
9:00 PM
Fri, Mar 5
10:00 PM
Fri, Mar 5
11:00 PM
Sat, Mar 6
12:00 AM
Sat, Mar 6
1:00 AM
Sat, Mar 6
2:00 AM
Sat, Mar 6
3:00 AM
Sat, Mar 6
4:00 AM
Sat, Mar 6
5:00 AM
Sat, Mar 6
6:00 AM
Sat, Mar 6
7:00 AM
Sat, Mar 6
8:00 AM
Sat, Mar 6
9:00 AM
Sat, Mar 6
10:00 AM
Sat, Mar 6
11:00 AM
Sat, Mar 6
12:00 PM
Sat, Mar 6
1:00 PM
Sat, Mar 6
2:00 PM
Sat, Mar 6
3:00 PM
Sat, Mar 6
4:00 PM
Sat, Mar 6
5:00 PM
Sat, Mar 6
6:00 PM
Sat, Mar 6
7:00 PM
Sat, Mar 6
8:00 PM
Sat, Mar 6
9:00 PM
Sat, Mar 6
10:00 PM
Sat, Mar 6
11:00 PM
Sun, Mar 7
12:00 AM
Condition
Clear

Clouds

Clouds

Clouds

Clouds

Clouds

Clouds

Clouds

Clouds

Clouds

Rain

Rain

Rain

Rain

Rain

Rain

Rain

Clouds

Clouds

Clouds

Clouds

Clouds

Clouds

Clouds

Clear

Clear

Clear

Clear

Clear

Clear

Clear

Clear

Clear

Clear

Clear

Clear

Clear

Clear

Clear

Clear

Clear

Clear

Clear

Clear

Clear

Clear

Clear

Clear
Temperature 51°F50°F48°F46°F45°F44°F43°F44°F45°F45°F45°F44°F44°F44°F44°F45°F45°F44°F42°F40°F39°F38°F36°F35°F34°F34°F33°F33°F33°F32°F33°F38°F44°F48°F52°F55°F58°F59°F58°F57°F55°F48°F46°F44°F43°F42°F41°F41°F
Feels Like 43°F42°F41°F38°F37°F35°F35°F34°F36°F36°F37°F36°F36°F38°F38°F39°F39°F39°F36°F34°F33°F32°F30°F30°F29°F28°F28°F28°F27°F27°F28°F34°F39°F44°F47°F49°F54°F54°F54°F52°F51°F44°F41°F39°F38°F36°F36°F35°F
Cloudiness 1%49%79%94%99%100%100%100%100%100%100%100%100%100%100%100%100%100%100%99%99%88%70%58%0%0%0%0%0%0%0%0%0%0%0%0%0%0%0%0%0%0%0%0%0%0%0%0%
Visibility 6 mi6 mi6 mi6 mi6 mi6 mi6 mi6 mi6 mi6 mi6 mi6 mi6 mi6 mi6 mi6 mi6 mi6 mi6 mi6 mi6 mi6 mi6 mi6 mi6 mi6 mi6 mi6 mi6 mi6 mi6 mi6 mi6 mi6 mi6 mi6 mi6 mi6 mi6 mi6 mi6 mi6 mi6 mi6 mi6 mi6 mi6 mi6 mi
Precipitation 0%0%0%0%0%0%0%0%2%7%20%40%82%83%87%88%88%76%2%0%0%0%0%0%0%0%0%0%0%0%0%0%0%0%0%0%0%0%0%0%0%0%0%0%0%0%0%0%
Humidity 54%62%66%69%67%67%69%67%65%65%68%75%78%79%80%79%78%81%81%81%81%82%85%86%87%87%87%86%85%85%84%76%64%56%50%45%42%41%41%42%51%58%62%65%68%71%73%74%
Dew Point 35°F37°F37°F37°F35°F34°F34°F34°F34°F34°F35°F36°F37°F38°F39°F39°F39°F38°F37°F35°F33°F33°F32°F31°F31°F30°F30°F29°F29°F28°F29°F31°F33°F33°F34°F34°F35°F35°F35°F34°F37°F34°F33°F33°F33°F33°F33°F33°F
Pressure 30.12"30.12"30.15"30.15"30.15"30.18"30.18"30.21"30.24"30.24"30.24"30.24"30.24"30.21"30.21"30.24"30.24"30.27"30.27"30.3"30.3"30.33"30.33"30.33"30.33"30.33"30.33"30.33"30.33"30.36"30.36"30.39"30.39"30.39"30.39"30.39"30.36"30.3"30.3"30.3"30.3"30.3"30.33"30.33"30.36"30.36"30.36"30.36"
Wind Speed 8.9 mph8.7 mph8.5 mph10.4 mph9 mph11.2 mph8.3 mph11 mph10.2 mph10.4 mph9.5 mph9.2 mph9.1 mph7.1 mph7.1 mph7.1 mph5.8 mph3.4 mph4.6 mph5 mph4.5 mph4.1 mph3.7 mph3.4 mph3.1 mph3 mph2.7 mph2.6 mph2.3 mph2.5 mph2.5 mph1.5 mph1.9 mph2.5 mph3 mph3.3 mph2.1 mph2.2 mph2.4 mph2.1 mph1.8 mph2.3 mph2.8 mph3.5 mph4 mph4.1 mph4 mph3.7 mph
Wind
Direction
93°
E
88°
E
87°
E
90°
E
86°
E
83°
E
87°
E
80°
E
90°
E
89°
E
89°
E
84°
E
73°
ENE
74°
ENE
69°
ENE
69°
ENE
86°
E
69°
ENE
62°
ENE
51°
NE
48°
NE
44°
NE
45°
NE
36°
NE
37°
NE
27°
NNE
26°
NNE
22°
NNE
35°
NE
11°
N
10°
N
31°
NNE
76°
ENE
123°
ESE
142°
SE
159°
SSE
160°
SSE
177°
S
174°
S
192°
SSW
183°
S
168°
SSE
144°
SE
145°
SE
159°
SSE
172°
S
174°
S
181°
S

Daily Forecast

Date High Low Precip. Humidity
Today
Mar 5

Rain
51 °F
36 °F
88%
75%
Saturday
Mar 6

Clear
59 °F
32 °F
0%
45%
Sunday
Mar 7

Clouds
61 °F
38 °F
0%
42%
Monday
Mar 8

Clear
64 °F
40 °F
0%
49%
Tuesday
Mar 9

Clouds
65 °F
50 °F
0%
60%
Wednesday
Mar 10

Clouds
63 °F
59 °F
4%
76%
Thursday
Mar 11

Rain
66 °F
61 °F
26%
73%
Friday
Mar 12

Rain
65 °F
54 °F
100%
94%
Saturday
Mar 13

Rain
52 °F
40 °F
100%
91%
Sunday
Mar 14

Snow
39 °F
34 °F
100%
84%
Monday
Mar 15

Snow
41 °F
32 °F
32%
76%
Tuesday
Mar 16

Clear
52 °F
30 °F
0%
50%
Wednesday
Mar 17

Clouds
55 °F
33 °F
0%
57%
Thursday
Mar 18

Rain
51 °F
37 °F
49%
42%
Friday
Mar 19

Clouds
56 °F
31 °F
0%
34%
Saturday
Mar 20

Clouds
61 °F
37 °F
0%
47%


Temperature 8-14 Day Outlook



Precipitation 8-14 Day Outlook




Quick Links
Norfork Lake News
Norfork Lake Photos
Norfork Lake Videos




About Us
Contact Us
Site Map
Search Site
Advertise With Us
   
Norfork.USLakes.info
THE NORFORK LAKE WEBSITE

Copyright 2021, Lakes Online
Privacy    |    Legal